[[{"header":{"parameterUnit":"m.s-1","parameterCategory":1,"la1":30.2991,"la2":30.254,"lo1":-89.0895,"lo2":-89.0444,"dy":0.0017,"dx":0.0017,"nx":28,"ny":28,"refTime":"2024-07-09T09:00:00:Z","depth":0,"parameterNumber":2,"parameterNumberName":"U-component_of_WINDS"},"data":[0,0,0,0,0,0,0,0,0,0,0,0,0,0,0,0,0,0,0,0,0,0,0,0,0,0,0,0,0,0,0,0,0,0,0,0,0,0,0,0,0,0,0,0,0,0,0,0,0,0,0,0,0,0,0,0,0,0,3.1472,3.1472,0,3.1492,3.1492,3.1492,3.1444,3.1443,3.1441,3.144,3.1458,3.146,3.1461,0,0,0,0,0,0,0,0,0,0,0,0,0,3.1388,3.139,3.1472,3.1472,3.1472,3.1492,3.1492,3.1492,3.1444,3.1442,3.1441,3.1439,3.1457,3.1459,3.1462,0,0,0,0,0,0,0,0,0,0,0,0,0,3.1418,3.139,3.1472,3.1451,3.1449,3.1491,3.1492,3.1492,3.1445,3.1442,3.144,3.1438,3.1456,3.1459,3.1462,3.1525,0,0,3.1471,3.1472,0,0,0,0,0,0,0,0,3.1416,3.1421,3.1454,3.1452,3.1451,3.1463,3.1469,3.1503,3.1445,3.1446,3.144,3.1437,3.1461,3.1463,3.1472,3.1526,3.1526,3.1471,3.1473,3.1474,3.1475,0,0,0,0,0,0,0,3.1414,3.142,3.148,3.1454,3.1452,3.1439,3.1441,3.1475,3.1466,3.1446,3.1443,3.1446,3.146,3.147,3.1472,3.1527,3.1471,3.1473,3.1475,3.1476,3.1627,3.1629,0,0,0,0,0,0,3.1415,3.1418,3.1479,3.148,3.1428,3.1442,3.1444,3.1461,3.1466,3.1464,3.1448,3.1443,3.1466,3.1469,3.1473,3.1542,3.1474,3.1476,3.1478,3.1624,3.1627,3.163,0,0,0,0,0,0,3.1414,3.1421,3.1478,3.1448,3.1455,3.1446,3.1466,3.1463,3.1472,3.1467,3.1465,3.1459,3.1464,3.1469,3.1511,3.1542,3.1478,3.148,3.1622,3.1625,3.1628,3.1684,0,0,0,0,0,0,3.1412,3.1421,3.1446,3.1449,3.1456,3.1518,3.1468,3.1465,3.1478,3.1472,3.1477,3.1476,3.1463,3.1507,3.1514,3.1545,3.1482,3.1619,3.1623,3.1627,3.168,3.1689,3.1698,0,0,0,0,0,3.1409,3.1462,3.1448,3.1455,3.1488,3.152,3.1524,3.1508,3.1481,3.1504,3.15,3.1476,3.1538,3.1512,3.1519,3.1551,3.1617,3.1622,3.1627,3.1676,3.1687,3.1697,0,0,0,0,0,0,3.1463,3.1462,3.1446,3.1503,3.1511,3.1512,3.1542,3.1522,3.1539,3.1533,3.1512,3.1513,3.1558,3.156,3.153,3.161,3.1572,3.1579,3.1607,3.1618,3.1627,3.1624,3.1485,0,0,0,0,0,3.1482,3.1509,3.1506,3.1556,3.1561,3.1551,3.1564,3.1551,3.1559,3.1563,3.1562,3.157,3.159,3.1605,3.1624,3.168,3.1678,3.1706,3.1715,3.1722,3.1727,3.1752,3.1763,3.1647,3.1647,3.1646,0,0,3.152,3.1523,3.1542,3.1567,3.1572,3.1598,3.1554,3.1585,3.1603,3.1567,3.1606,3.1606,3.1613,3.1661,3.1682,3.1663,3.1759,3.1729,3.1735,3.1736,3.1758,3.1769,3.1779,3.165,3.1649,3.1649,0,0,3.1603,3.161,3.1649,3.1655,3.1663,3.1655,3.1665,3.1667,3.1665,3.1704,3.1676,3.1697,3.1735,3.174,3.1747,3.1828,3.1804,3.1835,3.188,3.1905,3.1914,3.1922,3.1946,3.1956,3.1841,3.1841,3.1841,0,3.165,3.1689,3.1672,3.1703,3.1713,3.1681,3.1719,3.1725,3.174,3.1746,3.1726,3.1769,3.1772,3.1818,3.1837,3.1846,3.1853,3.1833,3.1914,3.1922,3.1929,3.1952,3.1961,3.1844,3.1844,3.1843,3.1843,0,3.1743,3.1771,3.1801,3.1814,3.1828,3.1863,3.1849,3.1865,3.185,3.1843,3.188,3.1883,3.19,3.1911,3.1897,3.1954,3.1941,3.1918,3.1879,3.1943,3.1964,3.1973,3.1849,3.1848,3.1847,3.1846,0,0,3.1861,3.1862,3.1873,3.1876,3.1882,3.1902,3.1934,3.195,3.1961,3.1972,3.1995,3.2027,3.2004,3.2012,3.1999,3.2021,3.2078,3.1994,3.1993,3.2006,3.2135,3.215,3.2161,3.2064,3.2065,3.2067,3.2133,0,3.1939,3.1993,3.1977,3.2031,3.2053,3.2021,3.2048,3.2053,3.2048,3.2064,3.2058,3.2078,3.2049,3.2053,3.2074,3.2067,3.2103,3.2062,3.2082,3.2083,3.2078,3.2173,3.2189,3.2252,3.2142,3.2143,3.2144,0,3.2038,3.205,3.2105,3.2102,3.2111,3.2136,3.2146,3.2165,3.2168,3.2162,3.217,3.2151,3.2179,3.2142,3.2178,3.2151,3.2158,3.2156,3.2158,3.2156,3.2115,3.217,3.2272,3.228,3.2158,3.2157,3.2156,0,3.2112,3.2143,3.2178,3.2183,3.2182,3.2199,3.2199,3.2201,3.221,3.222,3.2225,3.2238,3.2245,3.2254,3.2238,3.2214,3.2275,3.2238,3.2268,3.2268,3.228,3.2279,3.2381,3.2291,3.2291,3.2291,3.229,0,3.2199,3.2233,3.2211,3.2233,3.2269,3.2249,3.2285,3.2281,3.2282,3.2301,3.2276,3.2293,3.2272,3.2288,3.2275,3.2304,3.2309,3.2302,3.2298,3.2303,3.2303,3.2305,3.2299,3.2293,3.2293,3.2292,3.2292,0,3.2287,3.2275,3.2311,3.2306,3.2305,3.2331,3.2326,3.2344,3.2336,3.236,3.2364,3.2351,3.2367,3.2352,3.2369,3.236,3.2398,3.2389,3.2396,3.2392,3.2421,3.2417,3.2525,3.2536,3.2443,3.2444,3.2445,0,3.2342,3.2366,3.2363,3.2373,3.2375,3.2393,3.2401,3.2382,3.2392,3.2395,3.2413,3.2427,3.2436,3.2463,3.2454,3.2465,3.2454,3.2491,3.2455,3.2458,3.2449,3.2447,3.2447,3.2497,3.2498,3.2499,3.25,0,3.2438,3.2429,3.2443,3.2453,3.2463,3.2471,3.2476,3.2486,3.2466,3.2478,3.2494,3.2501,3.2516,3.2529,3.2536,3.2535,3.2513,3.2512,3.2518,3.2521,3.2523,3.2518,3.2412,3.2509,3.2508,3.2507,3.2507,3.2506,3.2508,3.2526,3.2526,3.254,3.2542,3.2546,3.2562,3.2555,3.2568,3.2578,3.2566,3.2584,3.2583,3.2591,3.2592,3.2604,3.2588,3.2599,3.2601,3.2603,3.2605,3.2523,3.2606,3.2606,3.2606,3.2605,3.2605,0,3.2599,3.2596,3.261,3.2616,3.2627,3.2606,3.261,3.262,3.2636,3.2637,3.2647,3.2662,3.2674,3.2665,3.2674,3.2685,3.2675,3.2688,3.2685,3.2684,3.2621,3.2612,3.2696,3.2696,3.2696,3.2696,3.2696,3.2695,3.2647,3.2676,3.2667,3.2695,3.2692,3.2709,3.2712,3.2715,3.2715,3.2734,3.2743,3.2737,3.2733,3.2741,3.275,3.2746,3.2749,3.2765,3.2758,3.2698,3.2689,3.2681,3.2672,3.2766,3.2767,3.2819,3.282,3.282]},{"header":{"parameterUnit":"m.s-1","parameterCategory":1,"la1":30.2991,"la2":30.254,"lo1":-89.0895,"lo2":-89.0444,"dy":0.0017,"dx":0.0017,"nx":28,"ny":28,"refTime":"2024-07-09T09:00:00:Z","depth":0,"parameterNumber":3,"parameterNumberName":"V-component_of_WINDS"},"data":[0,0,0,0,0,0,0,0,0,0,0,0,0,0,0,0,0,0,0,0,0,0,0,0,0,0,0,0,0,0,0,0,0,0,0,0,0,0,0,0,0,0,0,0,0,0,0,0,0,0,0,0,0,0,0,0,0,0,5.5703,5.5703,0,5.5719,5.5719,5.5719,5.5645,5.5643,5.564,5.5638,5.5654,5.5657,5.5659,0,0,0,0,0,0,0,0,0,0,0,0,0,5.5604,5.5606,5.5703,5.5703,5.5703,5.5719,5.5719,5.5719,5.5645,5.5642,5.564,5.5637,5.5653,5.5656,5.5659,0,0,0,0,0,0,0,0,0,0,0,0,0,5.5636,5.5607,5.5703,5.5668,5.5665,5.5719,5.5719,5.572,5.5646,5.5642,5.5639,5.5636,5.5652,5.5656,5.566,5.5747,0,0,5.5671,5.5672,0,0,0,0,0,0,0,0,5.5635,5.564,5.5673,5.567,5.5667,5.5677,5.569,5.5729,5.5647,5.5653,5.5638,5.5635,5.5664,5.5667,5.5677,5.5748,5.5749,5.5671,5.5673,5.5675,5.5676,0,0,0,0,0,0,0,5.5633,5.5639,5.5709,5.5673,5.567,5.5651,5.5652,5.5697,5.5677,5.5652,5.5647,5.565,5.5662,5.5674,5.5677,5.5749,5.5671,5.5674,5.5677,5.5678,5.589,5.5893,0,0,0,0,0,0,5.5635,5.5638,5.5709,5.571,5.5643,5.5655,5.5656,5.5677,5.5676,5.5673,5.5653,5.5646,5.5669,5.5672,5.5677,5.5777,5.5675,5.5678,5.568,5.5886,5.5891,5.5894,0,0,0,0,0,0,5.5633,5.5642,5.5708,5.5672,5.5679,5.566,5.5684,5.5679,5.569,5.5676,5.5672,5.5668,5.5666,5.5672,5.573,5.5777,5.568,5.5683,5.5882,5.5888,5.5892,5.598,0,0,0,0,0,0,5.5631,5.5642,5.5676,5.5673,5.5681,5.5762,5.5687,5.5682,5.5697,5.5689,5.569,5.5687,5.5664,5.5725,5.5733,5.578,5.5686,5.5878,5.5885,5.5891,5.5973,5.5987,5.6,0,0,0,0,0,5.5628,5.5701,5.5678,5.5687,5.5723,5.5764,5.5769,5.5742,5.5701,5.5734,5.5725,5.5687,5.5771,5.5731,5.574,5.5789,5.5875,5.5883,5.589,5.5967,5.5984,5.6,0,0,0,0,0,0,5.571,5.57,5.5675,5.5749,5.5758,5.5752,5.5793,5.5762,5.5782,5.5774,5.5739,5.574,5.5803,5.5802,5.5758,5.5872,5.5815,5.5825,5.587,5.5887,5.5901,5.5899,5.5689,0,0,0,0,0,5.5736,5.5771,5.576,5.5827,5.5833,5.5812,5.5829,5.5807,5.5815,5.5818,5.5813,5.5822,5.5849,5.5869,5.5894,5.5973,5.597,5.601,5.6024,5.6035,5.6044,5.6082,5.6099,5.592,5.5919,5.5919,0,0,5.5792,5.5791,5.5815,5.5844,5.5848,5.5883,5.5816,5.5857,5.5882,5.5825,5.5878,5.5875,5.5882,5.595,5.598,5.5951,5.6093,5.6045,5.6054,5.6056,5.6092,5.6109,5.6124,5.5925,5.5924,5.5923,0,0,5.5911,5.5915,5.5969,5.5974,5.5981,5.5967,5.598,5.5978,5.5973,5.6027,5.5983,5.6013,5.6062,5.6068,5.6077,5.6196,5.6161,5.6206,5.6276,5.6314,5.6328,5.634,5.638,5.6395,5.6214,5.6215,5.6215,0,5.5979,5.6031,5.6001,5.6044,5.6056,5.6006,5.6059,5.6066,5.6081,5.609,5.6058,5.6117,5.6119,5.6186,5.6214,5.6225,5.6237,5.6204,5.6329,5.6341,5.6352,5.6389,5.6404,5.622,5.6219,5.6219,5.6218,0,5.6113,5.6149,5.6192,5.6207,5.6225,5.6273,5.6249,5.627,5.6247,5.6235,5.6289,5.6289,5.6311,5.6326,5.6304,5.639,5.6371,5.6335,5.6277,5.6374,5.6409,5.6423,5.6227,5.6225,5.6224,5.6222,0,0,5.6284,5.628,5.6296,5.63,5.6304,5.6331,5.6376,5.6398,5.6416,5.6428,5.6463,5.6505,5.6471,5.6481,5.6459,5.6493,5.6584,5.6452,5.6451,5.6474,5.6675,5.6701,5.6718,5.6561,5.6564,5.6566,5.6673,0,5.6398,5.6474,5.6447,5.6525,5.6557,5.6508,5.6547,5.6552,5.6543,5.6568,5.6557,5.6586,5.654,5.6545,5.6577,5.6566,5.6623,5.6558,5.6592,5.6594,5.6589,5.6736,5.6764,5.6866,5.6687,5.6689,5.6691,0,5.6541,5.6557,5.6638,5.6633,5.6645,5.6681,5.6697,5.6722,5.6726,5.6717,5.6728,5.6698,5.674,5.6684,5.6741,5.6697,5.6709,5.6706,5.6709,5.671,5.6647,5.6738,5.6898,5.6912,5.6712,5.6711,5.6709,0,5.6654,5.6696,5.6749,5.6755,5.6751,5.6777,5.6776,5.6778,5.6792,5.6806,5.6814,5.6834,5.6845,5.686,5.6836,5.6797,5.6895,5.6837,5.6886,5.6887,5.6907,5.6906,5.7069,5.692,5.692,5.6919,5.6919,0,5.6783,5.6833,5.6799,5.6831,5.6886,5.6854,5.6909,5.6903,5.6904,5.6933,5.6893,5.6921,5.6889,5.6913,5.6895,5.6943,5.6949,5.6941,5.6935,5.6943,5.6944,5.6949,5.694,5.6923,5.6923,5.6922,5.6921,0,5.6918,5.6897,5.6951,5.6942,5.6941,5.6981,5.6973,5.7002,5.6989,5.7027,5.7034,5.7013,5.704,5.7018,5.7045,5.7032,5.7095,5.708,5.7093,5.7088,5.7138,5.7132,5.7307,5.7327,5.7168,5.717,5.7171,0,5.7,5.7037,5.7032,5.7048,5.705,5.7078,5.7091,5.7061,5.7077,5.7083,5.7111,5.7134,5.7151,5.7197,5.7184,5.7203,5.7187,5.7247,5.719,5.7196,5.7185,5.7182,5.7184,5.7258,5.726,5.7261,5.7263,0,5.7147,5.7134,5.7155,5.7172,5.7189,5.7202,5.7211,5.7226,5.7195,5.7215,5.7241,5.7255,5.7281,5.7304,5.7319,5.7317,5.7285,5.7281,5.7293,5.7301,5.7305,5.7301,5.7122,5.7277,5.7275,5.7274,5.7274,5.7273,5.7256,5.7286,5.7286,5.731,5.7313,5.7322,5.7347,5.7337,5.7359,5.7377,5.7358,5.739,5.7391,5.7408,5.7411,5.7434,5.7409,5.7427,5.7431,5.7436,5.7441,5.7304,5.7437,5.7437,5.7436,5.7436,5.7436,0,5.7399,5.7396,5.7418,5.7431,5.7449,5.7417,5.7425,5.7442,5.747,5.7474,5.7491,5.7521,5.7542,5.7531,5.7549,5.757,5.7556,5.7576,5.7573,5.7573,5.7464,5.7451,5.7587,5.7587,5.7587,5.7587,5.7587,5.7587,5.7475,5.7522,5.7509,5.7557,5.7554,5.7584,5.7591,5.7598,5.7601,5.7635,5.7652,5.7645,5.7642,5.766,5.7678,5.7674,5.7681,5.7707,5.7697,5.7596,5.7581,5.7566,5.7553,5.7709,5.771,5.7803,5.7804,5.7805]}]]